Home   Weather   Idaho Falls   Past weeks

Flag for USA Past Weather in Idaho Falls, Idaho, USA — Yesterday and Last 2 Weeks

Now
42 °F

Light rain. Fog.


Feels Like: 37 °F
Forecast: 40 / 47 °F
Wind: 8 mph from Southwest

Location: Fanning Field

Current Time: Apr 24, 2017 at 9:22:22 am

Latest Report: Apr 24, 2017 at 8:53 am


Visibility: 4 mi

Pressure: 29.69 "Hg (24.92 "Hg at 1429m altitude)

Humidity: 85%

Dew Point: 38 °F

Location of Idaho FallsLocation

Past Weather in Idaho Falls — Graph

°F

Idaho Falls Temperature Yesterday

Maximum temperature yesterday: 59 °F (at 1:53 pm)
Minimum temperature yesterday: 41 °F (at 6:53 am)
Average temperature yesterday: 50 °F

High & Low Weather Summary for the Past Weeks

 TemperatureHumidityPressure
High68 °F (Apr 13, 11:53 am)100% (Apr 21, 7:53 am)30.31 "Hg (Apr 21, 7:53 am)
Low26 °F (Apr 15, 6:53 am)20% (Apr 16, 3:53 pm)29.58 "Hg (Apr 13, 3:53 pm)
Average45 °F63%30.02 "Hg
* Reported Apr 9 7:53 am — Apr 24 7:53 am, Idaho Falls, Weather by CustomWeather, © 2017

Note: Actual official high and low records may vary slightly from our data, if they occured in-between our weather recording intervals... More about our weather records

Advertising

Idaho Falls Weather History for the Previous 24 Hours

Scroll right to see more
 ConditionsComfort  
Time TempWeatherWind HumidityBarometerVisibility
7:53 am
Mon, Apr 24
42 °FLight rain. Mostly cloudy.7 mph85%29.69 "Hg7 mi
7:15 am43 °FLight rain. Mostly cloudy.10 mph82%29.73 "Hg6 mi
6:53 am45 °FLight rain. Mostly cloudy.13 mph74%29.67 "Hg10 mi
5:53 am45 °FMostly cloudy.9 mph74%29.68 "Hg10 mi
4:53 am46 °FOvercast.10 mph71%29.67 "Hg10 mi
3:53 am46 °FOvercast.12 mph71%29.68 "Hg10 mi
2:53 am46 °FMostly cloudy.12 mph71%29.68 "Hg10 mi
1:53 am46 °FPassing clouds.13 mph68%29.69 "Hg10 mi
12:53 am48 °FOvercast.12 mph61%29.70 "Hg10 mi
11:53 pm
Sun, Apr 23
48 °FMostly cloudy.10 mph61%29.71 "Hg10 mi
10:53 pm45 °FPassing clouds.No wind71%29.74 "Hg10 mi
9:53 pm47 °FClear.5 mph64%29.76 "Hg10 mi
8:53 pm49 °FSunny.No wind59%29.75 "Hg10 mi
7:53 pm52 °FPartly sunny.13 mph57%29.75 "Hg10 mi
6:53 pm58 °FBroken clouds.15 mph38%29.73 "Hg10 mi
5:53 pm57 °FPartly sunny.25 mph44%29.72 "Hg10 mi
4:53 pm59 °FBroken clouds.24 mph41%29.71 "Hg10 mi
3:53 pm59 °FScattered clouds.18 mph42%29.72 "Hg10 mi
2:53 pm59 °FBroken clouds.17 mph48%29.75 "Hg10 mi
1:53 pm59 °FScattered clouds.16 mph46%29.77 "Hg10 mi
12:53 pm58 °FScattered clouds.12 mph44%29.79 "Hg10 mi
11:53 am56 °FScattered clouds.10 mph47%29.80 "Hg10 mi
10:53 am53 °FScattered clouds.No wind52%29.82 "Hg10 mi
9:53 am51 °FPassing clouds.3 mph59%29.83 "Hg10 mi
Weather by CustomWeather, © 2017

See weather overviewHow to use our weather pages